300  
ASUS41 KALY 251210  
RWRALY  
 
NEW YORK STATE HOURLY WEATHER ROUNDUP  
NATIONAL WEATHER SERVICE ALBANY NY  
800 AM EDT WED APR 25 2018  
 
NOTE: "FAIR" INDICATES FEW OR NO CLOUDS BELOW 12,000 FEET WITH NO  
SIGNIFICANT WEATHER AND/OR NO S TO VISIBILITY
.  
 
NYZ032-033-038>043-046>054-057>066-NYZ062>081-082-084-251300-  
EAST  
 
 
CITY SKY/WX TMP DP RH WIND PRES REMARKS
 
ALBANY LGT RAIN 49 46 90 CALM 30.04F FOG  
GLENS FALLS LGT RAIN 49 48 97 NE5 30.05F FOG  
POUGHKEEPSIE CLOUDY 52 49 89 NE5 29.97F FOG  
NEWBURGH LGT RAIN 50 50 100 NE7 29.97F FOG  
MONTGOMERY LGT RAIN 49 47 93 NE13 29.95F FOG  
WHITE PLAINS LGT RAIN 53 52 96 E12 29.95F VSB 1  
ISLIP CLOUDY 54 54 100 SE17 29.97F FOG  
NEW YORK CITY LGT RAIN 52 50 93 E12 29.93F FOG  
CENTRAL PARK HVY RAIN 54 53 97 VRB5 29.96F VSB 3/4  

 
 
NYZ005>009-017-018-044>046-055-056-251300-  
CENTRAL  
 
 
CITY SKY/WX TMP DP RH WIND PRES REMARKS
 
FULTON CLOUDY 51 48 89 E8 29.94F  
SYRACUSE LGT RAIN 49 49 100 E10 29.94F  
ROME LGT RAIN 49 47 93 E9 29.99F FOG  
ELMIRA CLOUDY 50 50 100 NE6 29.89F FOG  
BINGHAMTON LGT RAIN 47 47 100 E10 29.89F  
MONTICELLO LGT RAIN 46 45 96 E14 29.94F  

 
 
NYZ026>034-041>043-087-251300-  
NORTH  
 
 
CITY SKY/WX TMP DP RH WIND PRES REMARKS
 
WATERTOWN LGT RAIN 49 49 100 NE5 29.96F  
FORT DRUM NOT AVBL  
OGDENSBURG DRIZZLE 52 49 89 CALM 30.00F  
MASSENA LGT RAIN 53 47 79 CALM 30.03S  
SARANAC LAKE CLOUDY 44 43 96 CALM 30.00F  
PLATTSBURGH LGT RAIN 48 46 93 CALM 30.05  

 
 
NYZ001>004-010>016-019>021-085-251300-  
WEST  
 
 
CITY SKY/WX TMP DP RH WIND PRES REMARKS
 
NIAGARA FALLS LGT RAIN 51 47 86 E5 29.88F FOG  
BUFFALO LGT RAIN 49 49 100 NE3 29.88F FOG  
DUNKIRK LGT RAIN 48 48 100 NE3 29.88F FOG  
JAMESTOWN CLOUDY 48 46 93 CALM 29.87F  
WELLSVILLE CLOUDY 48 47 96 SE6 29.88F FOG  
ROCHESTER LGT RAIN 51 50 96 E9 29.91F FOG  
PENN YAN LGT RAIN 49 47 93 VRB3 29.91F FOG  

 
 
KEY  
WCI = WIND CHILL INDEX  
VSB = VISIBILITY  
HX = HEAT INDEX  

 
 
 
CLICK HERE TO GO TO PREVIOUS BULLETINS.

The Nexlab NY Page
The Nexlab VT Page
The Nexlab MA Page
The Nexlab CT Page Main Text Page